DW7142 Weather Reports


time (UTC)temp
C
wind
direction
speed
KPH
gust
KPH
rain 1hr
cm
rain 24hr
cm
rain mn
cm
humidity
%
barometer
mb
20260906113025 17 76 1.6 4.8 0.00 0.00 0.00 97 1015.7
20260906111524 17 83 1.6 6.4 0.00 0.00 0.00 97 1015.6
20260906110023 17 72 3.2 8.0 0.00 0.00 0.00 97 1015.4
20260906104522 17 77 4.8 9.7 0.00 0.00 0.00 97 1015.3
20260906103020 17 34 3.2 9.7 0.00 0.00 0.00 96 1015.4
20260906093102 17 61 0.0 6.4 0.00 0.00 0.00 96 1015.0
20260906091557 17 65 0.0 9.7 0.00 0.00 0.00 96 1014.8
20260906090109 17 72 0.0 6.4 0.00 0.00 0.00 96 1014.8
20260906084601 17 219 0.0 1.6 0.00 0.03 0.00 96 1014.9
20260906083055 17 285 0.0 0.0 0.00 0.03 0.00 96 1014.9
20260906081601 17 285 0.0 1.6 0.00 0.03 0.00 96 1014.9
20260906080054 17 73 0.0 1.6 0.00 0.03 0.00 95 1014.9
20260906074548 17 72 0.0 4.8 0.00 0.03 0.00 95 1014.7
20260906073056 18 70 1.6 8.0 0.00 0.03 0.00 95 1014.7
20260906071546 18 63 1.6 6.4 0.00 0.03 0.00 95 1014.7
20260906070054 18 57 0.0 6.4 0.00 0.03 0.00 95 1014.7
20260906064544 18 46 0.0 3.2 0.00 0.03 0.00 94 1014.8
20260906063044 18 349 0.0 0.0 0.00 0.03 0.00 94 1015.0
20260906061553 18 12 0.0 0.0 0.00 0.03 0.00 93 1015.0
20260906060038 19 97 0.0 3.2 0.00 0.03 0.00 93 1015.0
20260906054602 19 72 0.0 4.8 0.00 0.03 0.00 93 1014.9
20260906053041 20 84 0.0 4.8 0.00 0.03 0.00 92 1014.9
20260906051534 20 70 1.6 9.7 0.00 0.03 0.00 92 1014.9
20260906050035 20 70 0.0 9.7 0.00 0.03 0.00 92 1014.6
20260906044531 20 92 0.0 4.8 0.00 0.03 0.03 92 1014.5
20260906043040 20 15 0.0 9.7 0.00 0.03 0.03 92 1014.4
20260906041528 20 78 1.6 8.0 0.00 0.03 0.03 92 1014.2
20260906040027 19 56 0.0 6.4 0.00 0.03 0.03 92 1014.1
20260906034528 20 32 0.0 6.4 0.00 0.03 0.03 92 1014.0
20260906033024 20 75 0.0 6.4 0.00 0.03 0.03 92 1013.6
20260906031520 20 63 0.0 9.7 0.00 0.03 0.03 91 1013.6
20260906030018 20 94 0.0 11.3 0.00 0.03 0.03 90 1013.5
20260906024515 20 77 0.0 6.4 0.00 0.08 0.03 90 1013.5
20260906023015 21 71 0.0 6.4 0.00 0.08 0.03 89 1013.5
20260906021527 21 90 1.6 11.3 0.00 0.08 0.03 89 1013.4
20260906020012 21 96 0.0 9.7 0.00 0.08 0.03 89 1013.3
20260906014515 21 79 1.6 11.3 0.00 0.08 0.03 89 1013.3
20260906013011 21 71 1.6 9.7 0.00 0.08 0.03 89 1013.3
20260906011510 21 95 3.2 16.1 0.00 0.08 0.03 89 1013.3
20260906010010 21 80 6.4 19.3 0.00 0.08 0.03 88 1013.2
20260906004506 21 76 6.4 16.1 0.00 0.08 0.03 88 1013.2
20260906003006 21 74 4.8 14.5 0.00 0.08 0.03 88 1013.1
20260906001506 21 58 8.0 20.9 0.00 0.08 0.03 88 1013.1
20260906000004 22 67 9.7 27.4 0.00 0.08 0.03 86 1012.8
20260905234502 22 63 1.6 16.1 0.00 0.08 0.03 86 1012.9
20260905233026 23 87 6.4 14.5 0.00 0.08 0.03 83 1012.5
20260905231601 24 69 1.6 11.3 0.00 0.08 0.03 82 1012.4
20260905230103 24 89 4.8 19.3 0.00 0.08 0.03 82 1012.4
20260905224606 25 82 3.2 11.3 0.00 0.08 0.03 82 1012.1
20260905223058 25 60 6.4 17.7 0.00 0.08 0.03 82 1012.1
20260905221557 26 91 9.7 17.7 0.00 0.08 0.03 79 1012.0
20260905214555 27 79 3.2 19.3 0.00 0.08 0.03 75 1011.8
20260905213054 27 87 0.0 4.8 0.00 0.08 0.03 76 1011.6
20260905211554 26 68 0.0 8.0 0.00 0.08 0.03 77 1011.6
20260905210052 27 46 0.0 8.0 0.00 0.08 0.03 75 1011.7
20260905204551 27 53 0.0 4.8 0.00 0.08 0.03 75 1011.7
20260905203051 27 356 0.0 1.6 0.00 0.08 0.03 76 1011.7
20260905201548 26 77 0.0 9.7 0.00 0.08 0.03 78 1011.9
20260905200053 26 34 3.2 8.0 0.00 0.08 0.03 78 1011.9
20260905194547 26 69 0.0 11.3 0.00 0.08 0.03 80 1011.8
20260905193045 26 70 0.0 4.8 0.00 0.08 0.03 82 1012.2
20260905191544 25 55 0.0 6.4 0.00 0.08 0.03 84 1012.3
20260905190049 25 341 0.0 1.6 0.00 0.08 0.03 85 1012.4
20260905184551 24 317 0.0 3.2 0.00 0.08 0.03 85 1012.5
20260905183042 24 71 0.0 11.3 0.00 0.08 0.03 86 1012.7
20260905181604 23 330 0.0 6.4 0.00 0.08 0.03 86 1012.6
20260905180034 23 6 0.0 9.7 0.00 0.08 0.03 87 1012.6
20260905174533 23 98 0.0 6.4 0.00 0.08 0.03 87 1012.5
20260905173033 23 21 0.0 9.7 0.00 0.08 0.03 87 1012.5
20260905171536 23 68 0.0 4.8 0.00 0.08 0.03 87 1012.5
20260905170025 23 37 0.0 6.4 0.00 0.08 0.03 87 1012.6
20260905164532 23 82 0.0 8.0 0.00 0.33 0.03 88 1012.7
20260905163021 24 324 0.0 8.0 0.00 0.33 0.03 88 1012.7
20260905161520 23 72 1.6 11.3 0.00 0.33 0.03 87 1012.6
20260905160024 24 64 0.0 11.3 0.00 0.33 0.03 87 1012.6
20260905154518 24 325 0.0 6.4 0.00 0.33 0.03 87 1012.5
20260905153014 24 18 1.6 9.7 0.00 0.33 0.03 88 1012.2
20260905151512 23 65 6.4 12.9 0.00 0.33 0.03 88 1012.0
20260905150009 23 68 1.6 16.1 0.00 0.33 0.03 91 1012.0
20260905144508 22 78 3.2 12.9 0.00 0.33 0.03 94 1011.9
20260905143018 22 77 6.4 14.5 0.00 0.33 0.03 94 1012.0
20260905141508 21 70 3.2 12.9 0.00 0.33 0.03 95 1011.8
20260905140007 21 326 3.2 9.7 0.00 0.33 0.03 96 1011.9
20260905134510 21 73 4.8 11.3 0.00 0.33 0.03 96 1011.7
20260905133003 21 17 3.2 9.7 0.00 0.33 0.03 96 1011.6
20260905131503 21 60 6.4 12.9 0.00 0.33 0.03 96 1011.5
20260905130002 21 53 3.2 11.3 0.00 0.33 0.03 96 1012.0
20260905124552 21 80 3.2 11.3 0.00 0.33 0.03 96 1011.4
20260905123049 21 70 3.2 12.9 0.00 0.33 0.03 96 1011.1
20260905123007 21 82 4.8 12.9 0.00 0.33 0.03 96 1011.1
20260905121545 21 58 6.4 14.5 0.00 0.33 0.03 95 1010.7
20260905120043 21 64 4.8 11.3 0.00 0.33 0.03 95 1010.5
20260905114553 21 101 1.6 6.4 0.00 0.33 0.03 95 1010.3